Hourly Data Report for August 16, 2022

MIRAMICHI RCS
NEW BRUNSWICK
Current Station Operator: ECCC - MSC

47°00'34.000" N
65°27'54.000" W
33.00 m
8100989
71744
ACQ

Download Data

Hourly Data (August 2022)
Hourly Data Report for August 16, 2022
TIME
LST
Temp Definition
°C
Dew Point Definition
°C
Rel Hum Definition
%
Precip. Amount Definition
mm

Wind Dir Definition
10's deg

Wind Spd Definition
km/h
Visibility Definition
km
Stn Press Definition
kPa
Hmdx Definition


Wind Chill Definition


Weather Definition


00:00 16.2 14.0 86 0.0   0   101.35     LegendNANA
01:00 15.1 13.7 91 0.0 22 3   101.38     LegendNANA
02:00 14.6 13.9 96 0.0 25 4   101.39     LegendNANA
03:00 13.9 12.9 93 0.0 32 2   101.43     LegendNANA
04:00 13.1 12.0 93 0.0 25 3   101.45     LegendNANA
05:00 13.0 12.5 96 0.0 33 4   101.48     LegendNANA
06:00 13.0 11.5 91 0.0 0 1   101.55     LegendNANA
07:00 16.1 14.5 90 0.0 0 1   101.61     LegendNANA
08:00 19.4 17.5 89 0.0 3 8   101.65     LegendNANA
09:00 20.3 17.6 84 0.0 4 9   101.66 26   LegendNANA
10:00 22.5 18.1 76 0.0 8 15   101.69 29   LegendNANA
11:00 23.2 17.9 72 0.0 6 12   101.70 29   LegendNANA
12:00 24.2 18.6 71 0.0 8 15   101.71 31   LegendNANA
13:00 24.7 17.2 63 0.0 6 15   101.70 30   LegendNANA
14:00 25.0 18.6 68 0.0 7 19   101.69 31   LegendNANA
15:00 24.5 19.1 72 0.0 6 19   101.70 31   LegendNANA
16:00 23.2 18.2 74 0.0 6 20   101.74 29   LegendNANA
17:00 22.4 17.8 76 0.0 6 18   101.75 28   LegendNANA
18:00 21.6 17.6 78 0.0 5 15   101.75 27   LegendNANA
19:00 20.1 17.2 84 0.0 5 12   101.75 26   LegendNANA
20:00 18.9 17.0 89 0.0 5 8   101.77     LegendNANA
21:00 18.0 16.7 92 0.0 4 8   101.77     LegendNANA
22:00 17.6 16.8 95 0.0 3 7   101.79     LegendNANA
23:00 17.4 16.7 96 0.0 2 7   101.74     LegendNANA

Notes on Data Quality.

Legend

  • E = Estimated
  • M = Missing
  • NA = Not Available*
  • [empty] = Indicates an unobserved value
Date modified: